TimeAKDT,TemperatureF,Dew PointF,Humidity,Sea Level PressureIn,VisibilityMPH,Wind Direction,Wind SpeedMPH,Gust SpeedMPH,PrecipitationIn,Events,Conditions,WindDirDegrees,DateUTC
12:53 AM,30.9,15.1,52,29.70,10.0,WSW,5.8,-,N/A,,Partly Cloudy,240,2013-05-15 08:53:00
1:53 AM,30.0,18.0,61,29.71,10.0,SSW,8.1,-,N/A,,Scattered Clouds,210,2013-05-15 09:53:00
2:53 AM,28.9,18.0,64,29.71,10.0,SW,9.2,-,N/A,,Partly Cloudy,230,2013-05-15 10:53:00
3:53 AM,28.0,17.1,63,29.72,10.0,SW,8.1,-,N/A,,Mostly Cloudy,220,2013-05-15 11:53:00
4:53 AM,28.0,16.0,61,29.72,10.0,SW,8.1,-,N/A,,Mostly Cloudy,230,2013-05-15 12:53:00
5:53 AM,28.9,17.1,61,29.73,10.0,WSW,5.8,-,N/A,,Overcast,240,2013-05-15 13:53:00
6:53 AM,30.0,18.0,61,29.74,10.0,WSW,3.5,-,N/A,,Mostly Cloudy,240,2013-05-15 14:53:00
7:53 AM,32.0,17.1,54,29.74,10.0,Calm,Calm,-,N/A,,Mostly Cloudy,0,2013-05-15 15:53:00
8:53 AM,34.0,16.0,48,29.74,10.0,Calm,Calm,-,N/A,,Scattered Clouds,0,2013-05-15 16:53:00
9:53 AM,37.9,18.0,45,29.73,10.0,ESE,4.6,-,N/A,,Mostly Cloudy,110,2013-05-15 17:53:00
10:53 AM,39.0,17.1,41,29.73,10.0,East,5.8,16.1,N/A,,Mostly Cloudy,100,2013-05-15 18:53:00
11:53 AM,42.1,18.0,38,29.73,10.0,Variable,5.8,-,N/A,,Mostly Cloudy,0,2013-05-15 19:53:00
12:53 PM,43.0,18.0,37,29.72,10.0,Variable,3.5,-,N/A,,Mostly Cloudy,0,2013-05-15 20:53:00
1:53 PM,44.1,18.0,35,29.71,10.0,Variable,6.9,-,N/A,,Mostly Cloudy,0,2013-05-15 21:53:00
2:53 PM,46.0,17.1,31,29.70,10.0,Variable,5.8,20.7,N/A,,Mostly Cloudy,0,2013-05-15 22:53:00
3:53 PM,48.0,17.1,29,29.69,10.0,South,11.5,23.0,N/A,,Scattered Clouds,190,2013-05-15 23:53:00
4:53 PM,46.9,16.0,29,29.69,10.0,WSW,11.5,19.6,N/A,,Scattered Clouds,240,2013-05-16 00:53:00
5:53 PM,46.0,16.0,30,29.69,10.0,West,10.4,23.0,N/A,,Scattered Clouds,260,2013-05-16 01:53:00
6:53 PM,46.0,15.1,29,29.69,10.0,SSW,10.4,18.4,N/A,,Scattered Clouds,210,2013-05-16 02:53:00
7:53 PM,46.9,16.0,29,29.69,10.0,SSW,11.5,-,N/A,,Mostly Cloudy,200,2013-05-16 03:53:00
8:53 PM,43.0,21.9,43,29.70,10.0,South,21.9,27.6,N/A,,Mostly Cloudy,190,2013-05-16 04:53:00
9:53 PM,41.0,19.0,41,29.70,10.0,SSW,16.1,27.6,N/A,,Clear,200,2013-05-16 05:53:00
10:53 PM,39.0,19.9,46,29.70,10.0,South,16.1,-,N/A,,Clear,190,2013-05-16 06:53:00
11:53 PM,37.0,19.0,48,29.71,10.0,WSW,5.8,-,N/A,,Clear,250,2013-05-16 07:53:00